Probability
0 0 0 0 0 0 0 0 3 6 10 19 16 13 16 32 26 29 45 45 48 52 52 55 55 52 42 35 39 45 45 42 52 52 48 52 48 52 42 42 32 39 42 42
0 0 0 0 0 3 3 3 3 6 10 13 16 16 29 32 32 45 48 55 52 52 55 55 48 42 35 35 39 39 39 42 45 45 42 42 42 42 35 35 35 39 35 32
0 0 0 0 0 3 3 3 3 6 13 13 10 23 32 32 32 42 52 55 52 48 45 42 48 39 35 35 35 35 35 39 42 35 39 39 32 29 35 35 39 39 32 32
3 0 0 0 0 0 0 0 3 3 10 16 13 26 26 26 39 45 52 52 52 48 48 42 39 35 39 35 32 32 32 26 26 32 29 29 23 32 35 35 39 39 35 26
0 0 0 0 0 0 0 0 10 6 6 6 10 19 32 32 45 42 48 42 45 48 45 45 32 35 39 39 35 29 26 29 26 23 29 23 26 26 35 35 39 35 32 32
0 0 0 0 0 0 0 3 6 10 10 6 13 13 35 42 39 35 29 39 39 45 42 45 42 39 32 29 29 26 26 23 29 19 19 26 23 23 23 35 26 26 26 29
3 0 3 0 3 0 0 13 10 13 13 32 32 42 45 39 32 32 35 35 35 32 39 42 32 32 32 32 29 26 19 19 19 23 23 29 26 23 26 23 26 29 26 26
3 0 0 0 3 16 32 39 13 16 19 35 45 45 39 45 39 39 29 29 29 35 39 32 29 32 35 35 29 16 16 16 19 26 19 19 23 29 26 23 23 23 23 26
16 6 16 6 16 26 23 26 23 26 29 35 39 42 39 45 42 42 35 32 32 35 39 35 35 35 29 32 26 19 13 19 19 23 23 23 26 19 26 23 16 13 13 10
16 10 10 6 6 13 13 16 19 26 26 26 39 45 45 48 45 45 39 32 35 35 32 29 29 29 32 32 23 19 23 26 23 23 19 23 29 13 16 16 10 10 6 6
19 13 6 13 13 10 6 13 16 19 19 23 42 45 42 45 45 42 42 35 35 35 35 32 32 32 29 26 19 23 23 16 16 19 16 29 16 19 13 16 10 10 6 10
13 19 10 10 6 6 13 13 10 13 26 35 35 42 42 45 45 42 42 35 32 29 32 32 29 29 26 23 19 23 23 19 16 16 19 13 13 6 0 0 0 0 0 6
10 10 6 10 10 10 10 10 3 16 29 29 32 32 39 42 42 42 35 32 29 26 29 29 32 23 19 13 16 19 16 16 13 13 13 13 13 10 6 0 0 0 0 0
13 10 10 10 6 13 13 6 10 16 19 26 32 35 39 39 32 32 32 32 26 26 29 26 19 16 13 13 13 10 10 10 10 10 10 10 13 13 13 6 3 0 0 0
10 6 10 6 6 13 13 10 13 16 19 26 29 29 29 29 35 29 32 32 26 23 26 19 16 13 10 16 10 13 6 6 6 6 6 6 6 6 6 6 6 6 3 0
6 6 6 10 10 13 10 13 13 19 23 23 29 29 26 23 29 29 29 32 26 23 26 23 16 19 13 13 13 10 13 6 6 10 6 6 6 6 6 10 3 3 0 0
10 13 13 10 10 13 13 16 16 19 16 23 26 29 26 26 26 26 29 29 32 29 29 29 19 23 16 13 6 6 6 3 0 3 3 3 0 3 3 3 3 0 6 0
10 6 10 10 10 13 10 16 16 16 16 13 23 26 26 23 26 26 32 23 23 19 19 19 16 19 13 10 13 0 0 0 0 0 0 0 0 0 0 3 3 3 0 0
6 6 3 6 10 13 10 10 6 16 16 19 26 26 26 32 35 32 32 23 23 19 16 13 3 10 6 6 0 3 0 0 0 0 0 0 0 0 0 3 3 3 0 0
10 6 3 6 10 10 6 16 13 13 19 19 26 29 35 35 35 32 32 23 16 16 16 10 6 10 6 6 0 0 0 0 0 0 0 0 0 0 3 0 0 0 0 0
6 6 10 13 10 10 19 16 16 19 26 26 29 32 35 39 32 32 26 19 26 26 6 3 3 3 6 0 0 0 0 0 0 0 0 0 0 3 6 0 0 0 0 0
13 10 10 10 16 19 19 19 23 23 26 29 26 29 29 29 26 26 26 23 16 3 3 0 0 0 0 0 0 0 0 0 0 0 0 3 3 3 3 0 0 0 0 0
19 16 13 13 10 23 23 23 16 19 19 23 26 29 26 29 16 13 13 19 10 0 3 6 0 0 0 0 0 0 0 0 0 0 3 3 3 3 0 0 0 0 0 3
23 26 16 13 16 16 16 13 13 19 13 13 16 19 16 16 16 13 13 3 3 0 3 3 0 0 0 0 0 0 0 0 0 3 3 3 3 0 0 0 0 0 0 0
19 19 19 16 16 16 19 13 23 19 10 10 10 13 13 16 16 10 10 6 0 0 3 0 0 0 0 0 0 0 0 0 0 6 3 0 0 0 0 0 0 3 0 0
19 19 23 26 16 23 13 13 10 10 13 10 10 10 10 10 16 10 13 3 0 0 0 0 0 0 0 0 0 0 0 0 0 0 0 0 0 0 0 0 0 0 0 0
10 16 23 13 10 19 13 10 10 10 10 10 10 10 10 3 6 6 6 10 6 0 0 0 0 0 0 0 0 0 3 0 0 0 0 0 0 0 0 0 0 0 0 0
Height
5867 5869 5871 5872 5874 5875 5876 5877 5878 5878 5877 5877 5876 5874 5874 5873 5873 5873 5872 5871 5870 5869 5868 5867 5866 5864 5863 5862 5860 5858 5857 5855 5852 5850 5847 5845 5842 5839 5837 5834 5831 5828 5825 5822
5862 5864 5867 5868 5870 5871 5872 5873 5874 5874 5873 5873 5872 5871 5871 5870 5870 5868 5868 5867 5866 5865 5864 5862 5861 5860 5859 5857 5856 5854 5852 5850 5847 5845 5842 5839 5837 5834 5831 5828 5825 5822 5819 5816
5857 5860 5862 5864 5866 5868 5869 5869 5870 5869 5869 5869 5869 5868 5867 5866 5865 5864 5863 5863 5862 5861 5859 5858 5856 5855 5854 5853 5851 5849 5847 5845 5842 5840 5837 5834 5831 5828 5825 5822 5819 5815 5812 5809
5853 5856 5856 5862 5862 5863 5864 5865 5866 5865 5865 5865 5864 5863 5862 5862 5861 5860 5859 5858 5856 5854 5854 5854 5852 5851 5850 5848 5846 5844 5842 5839 5837 5834 5831 5829 5826 5823 5819 5816 5812 5809 5806 5803
5848 5850 5852 5856 5857 5857 5859 5860 5861 5860 5860 5860 5858 5857 5857 5857 5856 5855 5854 5854 5852 5851 5850 5849 5848 5846 5845 5843 5841 5839 5836 5833 5831 5828 5826 5823 5819 5816 5813 5809 5806 5803 5799 5796
5842 5845 5847 5851 5852 5852 5854 5854 5855 5855 5855 5854 5853 5854 5853 5852 5851 5850 5849 5849 5848 5846 5845 5845 5843 5841 5840 5838 5836 5833 5831 5828 5825 5822 5820 5816 5813 5810 5806 5803 5799 5796 5793 5789
5837 5838 5841 5844 5845 5847 5850 5849 5849 5850 5849 5849 5849 5849 5848 5847 5847 5846 5845 5844 5843 5842 5841 5840 5838 5836 5834 5832 5830 5828 5825 5822 5819 5816 5813 5810 5807 5803 5800 5796 5793 5789 5786 5782
5831 5833 5837 5838 5839 5841 5842 5843 5843 5843 5844 5843 5843 5843 5843 5843 5842 5841 5840 5839 5838 5837 5836 5834 5832 5831 5829 5827 5825 5822 5819 5816 5813 5810 5807 5804 5800 5797 5793 5789 5786 5782 5779 5775
5824 5827 5828 5830 5832 5833 5834 5836 5836 5837 5838 5838 5838 5838 5838 5837 5836 5836 5835 5834 5833 5832 5830 5829 5826 5825 5823 5821 5818 5816 5813 5810 5806 5803 5800 5797 5794 5790 5786 5782 5779 5775 5772 5768
5816 5819 5821 5823 5824 5826 5827 5829 5830 5831 5832 5832 5832 5831 5831 5831 5831 5830 5829 5828 5827 5826 5825 5823 5821 5819 5817 5815 5812 5809 5806 5803 5800 5797 5793 5790 5786 5783 5779 5775 5771 5768 5765 5761
5809 5812 5814 5815 5817 5819 5820 5822 5823 5824 5825 5825 5825 5825 5825 5825 5825 5824 5824 5823 5821 5820 5818 5817 5815 5812 5810 5808 5805 5802 5799 5796 5793 5790 5786 5783 5779 5776 5772 5768 5764 5761 5757 5754
5801 5803 5806 5808 5810 5811 5813 5814 5816 5817 5818 5819 5819 5819 5819 5819 5818 5817 5817 5816 5815 5813 5812 5809 5807 5805 5803 5801 5798 5795 5793 5790 5786 5783 5779 5776 5773 5769 5765 5762 5758 5754 5750 5747
5793 5794 5797 5801 5802 5804 5806 5807 5809 5810 5811 5812 5812 5812 5812 5812 5811 5810 5809 5808 5808 5806 5805 5803 5800 5798 5796 5794 5791 5788 5785 5782 5779 5776 5772 5769 5766 5762 5758 5755 5751 5747 5743 5739
5785 5788 5791 5793 5794 5796 5799 5800 5802 5803 5803 5804 5805 5805 5805 5805 5804 5803 5802 5800 5800 5799 5798 5796 5794 5792 5789 5786 5784 5781 5778 5775 5772 5768 5765 5762 5758 5754 5751 5747 5744 5740 5736 5732
5778 5781 5783 5785 5787 5789 5791 5793 5794 5795 5795 5797 5797 5798 5798 5798 5797 5797 5796 5794 5793 5792 5790 5789 5787 5785 5782 5779 5777 5774 5771 5767 5764 5761 5757 5754 5750 5747 5743 5740 5736 5732 5729 5725
5770 5773 5775 5777 5779 5781 5783 5785 5787 5788 5788 5789 5790 5790 5790 5790 5790 5789 5788 5787 5786 5785 5783 5782 5780 5777 5775 5772 5769 5766 5763 5760 5757 5753 5750 5746 5742 5739 5735 5732 5728 5724 5721 5717
5762 5765 5768 5770 5772 5774 5776 5778 5779 5780 5781 5781 5782 5783 5783 5783 5782 5782 5781 5780 5779 5778 5776 5774 5772 5770 5767 5764 5761 5758 5755 5752 5749 5745 5742 5738 5734 5731 5727 5724 5720 5716 5713 5709
5756 5758 5760 5763 5765 5767 5769 5770 5771 5772 5772 5772 5773 5775 5775 5775 5775 5774 5773 5772 5772 5770 5769 5767 5765 5762 5759 5757 5754 5751 5747 5744 5741 5738 5734 5731 5727 5724 5720 5716 5712 5709 5705 5702
5749 5751 5754 5756 5758 5760 5761 5763 5764 5765 5765 5766 5766 5767 5768 5767 5767 5767 5766 5765 5764 5762 5761 5759 5757 5754 5752 5749 5746 5743 5740 5737 5734 5730 5727 5723 5720 5716 5713 5709 5705 5702 5698 5695
5743 5745 5747 5749 5751 5753 5754 5756 5757 5758 5758 5759 5759 5760 5760 5760 5759 5759 5758 5757 5756 5754 5753 5751 5749 5747 5745 5742 5739 5736 5733 5730 5727 5723 5720 5716 5713 5709 5706 5702 5699 5695 5692 5689
5737 5739 5741 5743 5745 5746 5748 5749 5750 5750 5750 5751 5752 5752 5752 5752 5751 5751 5750 5749 5748 5747 5746 5744 5742 5740 5738 5735 5732 5730 5727 5724 5720 5717 5713 5710 5707 5703 5700 5696 5693 5689 5686 5682
5732 5734 5735 5737 5739 5740 5741 5742 5742 5742 5743 5743 5744 5744 5744 5744 5744 5743 5743 5742 5741 5740 5738 5737 5735 5733 5730 5728 5725 5723 5720 5717 5714 5711 5707 5704 5701 5698 5694 5691 5687 5684 5680 5677
5726 5728 5729 5731 5732 5733 5734 5735 5735 5735 5735 5736 5736 5737 5737 5737 5736 5736 5735 5735 5733 5732 5731 5729 5728 5726 5723 5721 5719 5716 5713 5711 5707 5704 5701 5698 5695 5692 5689 5685 5682 5678 5675 5671
5720 5721 5723 5724 5726 5727 5727 5728 5728 5729 5729 5730 5730 5730 5730 5730 5729 5729 5728 5727 5726 5725 5724 5722 5720 5719 5716 5714 5712 5710 5707 5704 5701 5698 5695 5692 5689 5686 5683 5680 5676 5673 5669 5666
5714 5715 5717 5718 5719 5720 5721 5722 5722 5722 5721 5723 5723 5723 5723 5723 5722 5722 5721 5720 5719 5718 5716 5715 5713 5711 5709 5707 5705 5703 5701 5698 5695 5692 5689 5686 5683 5680 5677 5674 5671 5667 5664 5660
5709 5710 5711 5712 5713 5714 5714 5715 5715 5714 5715 5716 5716 5716 5716 5715 5714 5714 5713 5712 5711 5710 5709 5707 5705 5704 5702 5701 5699 5697 5694 5692 5689 5686 5683 5680 5677 5674 5671 5668 5665 5661 5658 5654
5703 5704 5705 5707 5707 5708 5709 5709 5708 5709 5709 5709 5709 5709 5709 5708 5707 5707 5706 5705 5704 5703 5701 5700 5698 5697 5695 5694 5692 5690 5687 5685 5683 5680 5677 5675 5672 5669 5665 5662 5659 5655 5652 5648
Wind_Speed
19 17 15 16 15 16 17 16 14 16 18 16 16 16 17 17 17 16 16 17 17 17 17 17 17 18 18 19 19 21 22 23 24 24 25 26 26 26 27 27 27 27 27 26
20 18 17 16 15 15 16 16 15 16 18 16 17 18 19 19 18 17 18 18 18 18 18 18 19 20 20 20 21 22 23 24 25 25 26 27 27 27 28 28 29 29 29 28
18 17 17 18 17 16 15 15 16 17 17 18 19 20 21 20 20 19 19 19 19 19 19 20 20 21 21 21 22 23 24 24 25 26 27 27 28 28 29 30 30 30 29 29
20 18 19 17 17 17 17 17 17 19 18 19 19 21 22 21 20 18 19 20 20 19 20 21 21 21 21 22 23 23 25 26 26 27 27 28 28 29 30 30 30 30 30 31
21 20 18 16 16 16 17 17 17 19 19 19 21 22 21 20 20 20 19 20 20 20 20 21 21 21 22 23 23 24 26 26 27 27 28 29 29 30 31 31 30 30 31 31
23 21 20 17 16 17 19 19 18 19 21 21 21 21 21 21 20 19 18 19 20 21 22 21 21 22 22 23 24 25 26 27 27 27 29 29 30 30 30 30 31 31 31 31
25 23 21 19 19 18 20 20 19 20 22 22 21 22 23 22 21 20 19 21 22 23 23 22 22 22 23 23 25 26 27 28 28 29 30 30 30 30 31 31 31 31 31 30
26 26 24 22 22 22 23 23 23 23 24 22 23 23 24 23 22 21 22 22 23 23 23 23 23 24 24 26 27 28 29 29 30 30 30 30 30 31 31 31 30 30 30 30
26 26 25 23 23 26 27 27 26 25 25 24 24 25 24 23 23 23 24 24 24 24 25 25 25 26 27 28 29 29 29 29 30 30 30 30 31 30 30 30 30 30 31 30
28 28 28 27 27 27 26 27 28 27 26 25 26 27 27 26 25 25 25 26 26 26 26 27 27 27 28 29 30 30 29 30 30 30 30 30 30 30 30 30 30 31 30 30
29 28 29 28 28 28 28 28 28 28 27 26 26 27 27 27 27 27 26 26 27 27 27 28 27 28 28 29 29 30 30 30 30 30 29 29 29 30 30 30 31 30 30 30
28 29 29 29 28 27 28 28 27 28 27 26 26 27 27 27 27 27 27 27 27 27 27 27 28 28 29 29 30 30 30 30 31 30 29 30 30 31 30 30 30 30 30 30
29 28 30 30 30 29 27 27 27 27 27 28 28 28 27 27 27 27 27 28 27 27 27 27 28 28 29 29 30 30 30 31 31 30 30 31 31 31 31 30 30 30 30 30
30 29 30 30 29 29 28 28 27 28 28 28 27 28 28 28 27 27 27 27 27 27 28 28 29 29 30 30 30 31 31 31 31 31 31 31 31 32 32 31 31 30 30 30
30 30 29 29 29 29 29 28 28 28 28 28 28 28 28 28 28 28 28 27 28 28 28 28 29 30 31 32 32 32 31 31 31 31 32 31 31 31 31 31 31 31 30 31
27 27 27 28 28 28 28 28 28 28 28 28 28 28 28 28 28 27 28 28 28 28 29 30 30 31 31 31 31 31 31 31 31 31 31 31 31 31 31 31 31 31 30 30
27 26 27 27 27 27 27 28 28 28 28 29 29 29 29 29 29 28 28 28 28 29 30 30 31 31 31 31 31 32 31 31 31 30 31 31 31 31 30 31 31 30 30 30
27 27 27 26 26 27 27 27 28 28 29 28 28 29 29 29 29 28 28 29 29 29 30 30 31 30 30 30 31 31 31 31 31 31 31 31 30 30 30 30 30 30 30 29
27 27 27 27 26 27 27 27 28 28 29 29 28 28 28 28 29 29 29 29 29 29 29 29 29 29 29 29 30 30 31 30 31 31 31 30 30 30 30 29 29 29 29 28
26 26 26 27 27 28 28 28 28 28 28 28 28 29 29 30 29 28 29 29 29 28 28 28 28 28 28 28 29 29 29 29 29 29 29 28 28 28 28 28 28 28 27 27
25 26 26 26 27 27 28 28 28 28 28 28 28 28 28 28 28 27 27 28 28 28 29 28 28 28 28 28 28 28 28 28 28 27 27 27 26 27 27 28 27 26 26 27
25 25 25 25 25 26 27 27 27 28 27 27 27 27 27 26 26 26 27 27 27 27 27 27 27 27 28 28 28 27 27 27 27 27 26 26 26 27 27 26 26 26 26 26
24 25 24 24 24 25 25 26 26 26 26 25 26 25 25 25 25 26 26 25 26 26 26 26 26 27 27 27 26 26 26 26 27 27 26 26 26 26 25 25 26 26 26 26
23 23 24 24 24 24 25 25 25 25 25 25 25 24 25 25 25 25 25 25 25 25 25 26 26 26 25 25 25 25 25 26 26 26 26 26 26 25 25 25 26 26 26 26
21 22 23 23 23 24 25 24 23 23 23 24 25 25 25 24 24 24 25 25 25 25 25 25 26 25 24 24 25 25 26 26 25 25 25 25 25 25 25 25 25 26 26 26
20 21 21 22 21 22 22 21 22 23 24 24 24 24 24 24 24 24 24 24 24 25 25 25 25 25 25 24 25 25 25 25 24 24 24 24 25 25 24 24 25 25 26 27
19 19 19 19 20 20 20 21 21 22 22 23 23 24 23 24 24 23 23 24 24 25 25 25 25 25 25 25 25 24 24 24 24 24 24 24 24 24 24 25 25 25 26 27
Wind_Direction
242 243 243 247 253 255 251 251 255 261 268 270 275 279 286 285 285 287 289 291 293 295 296 296 297 298 298 298 301 303 305 306 307 308 309 309 308 309 310 310 310 310 310 309
240 238 239 240 246 252 251 249 253 261 261 268 275 279 282 284 284 284 289 291 292 293 296 296 298 298 298 299 301 303 304 306 307 308 309 310 310 309 308 308 309 309 309 309
240 238 240 241 244 246 249 246 252 261 262 265 273 277 277 280 280 283 285 290 292 293 294 297 297 298 298 299 302 304 306 307 308 308 309 309 309 309 309 309 308 308 310 311
242 241 245 248 251 249 248 249 252 259 263 268 273 274 275 277 277 279 284 288 289 289 292 295 297 298 300 302 303 304 306 307 308 308 308 308 309 308 308 309 309 309 309 309
241 244 249 249 254 252 250 250 250 257 261 263 270 271 272 273 278 282 284 289 289 292 297 299 300 301 302 302 304 305 306 307 307 307 308 308 309 309 309 309 311 311 311 310
241 240 245 245 249 252 254 250 248 255 259 258 263 269 272 276 284 287 283 287 295 298 298 298 300 300 302 304 305 307 307 307 306 306 306 307 310 311 311 311 311 311 310 310
242 243 243 246 247 247 251 253 255 259 261 262 268 271 274 280 285 284 286 288 293 296 296 298 299 300 302 303 305 307 307 307 307 306 307 309 310 311 311 311 310 309 309 308
243 244 244 245 248 249 252 255 256 258 261 265 269 270 274 278 281 286 288 291 293 294 294 296 298 299 302 303 304 305 307 307 306 306 307 308 308 310 310 310 310 309 309 309
244 244 246 245 247 251 253 255 256 258 261 267 269 271 273 276 281 285 287 290 291 292 294 294 298 300 302 304 304 304 306 307 307 307 307 307 307 309 310 311 309 309 309 308
244 246 248 248 248 250 251 253 257 261 264 264 267 271 273 275 279 283 286 288 289 291 293 295 297 299 301 303 304 305 307 309 309 307 307 308 308 309 311 312 311 311 311 310
244 245 246 245 247 250 251 254 257 259 261 264 268 271 274 276 278 280 283 286 288 289 292 293 295 298 301 302 303 304 306 308 308 308 309 309 310 311 312 312 313 313 312 311
239 242 244 245 248 252 255 256 257 260 262 265 268 272 275 277 278 278 280 284 287 289 291 291 293 297 299 301 302 304 305 307 307 307 308 309 310 311 313 313 313 313 311 310
240 244 246 246 248 251 254 257 259 260 264 266 269 272 274 276 276 276 278 280 283 287 290 291 293 296 298 301 302 304 305 307 308 308 309 310 310 311 312 312 313 313 313 312
242 246 247 249 251 252 254 257 260 261 263 265 268 271 274 275 276 278 282 280 282 285 288 291 295 296 299 299 302 304 305 306 307 308 309 309 310 310 310 311 312 312 312 312
245 246 247 248 250 252 254 256 259 260 262 265 267 270 272 274 276 278 281 284 284 286 288 291 295 296 298 299 301 302 304 305 306 307 308 309 309 309 309 309 310 310 310 310
244 245 247 248 249 250 251 254 257 259 262 264 266 268 271 273 275 278 281 284 285 287 289 291 294 296 297 298 301 302 303 304 305 307 307 307 308 308 308 308 309 309 310 310
246 246 247 248 249 250 251 253 255 258 262 264 266 268 271 273 275 277 280 282 284 286 288 290 293 295 297 299 301 303 303 304 304 306 308 307 308 308 308 308 309 309 309 310
248 249 249 249 249 251 252 254 256 258 260 262 264 267 270 273 275 278 280 283 285 286 288 290 292 294 297 300 301 303 304 305 305 307 308 308 308 308 309 310 309 308 309 310
250 249 249 248 248 250 251 253 257 260 262 264 266 269 271 274 277 278 281 283 285 286 288 292 293 295 298 301 302 304 305 305 306 306 308 309 308 309 310 311 311 310 310 311
252 250 249 249 250 251 253 255 258 261 263 265 267 270 273 276 278 281 282 283 284 285 289 292 294 296 299 301 302 303 305 307 308 308 309 310 310 311 312 313 314 313 312 312
251 250 249 250 252 254 255 257 259 261 263 265 268 272 275 277 279 282 283 284 285 287 288 290 293 296 299 300 301 302 305 307 308 309 311 312 312 313 314 315 316 317 316 315
252 252 252 252 253 255 256 257 259 262 262 264 268 272 275 277 279 280 282 284 285 286 288 291 294 297 299 300 300 302 305 307 308 309 309 310 312 313 314 315 316 317 318 317
251 252 252 253 253 255 257 258 260 262 265 266 269 272 275 277 278 279 282 284 286 287 289 292 294 296 298 299 301 302 305 306 308 308 309 310 312 313 314 315 316 317 317 318
253 253 252 253 254 254 257 260 261 263 265 267 270 272 274 276 277 278 281 284 286 288 289 291 292 294 296 298 300 302 304 306 307 307 308 310 312 312 313 314 316 317 318 319
253 253 253 253 255 257 258 259 260 262 264 268 269 270 272 274 276 278 281 283 285 287 288 289 291 293 294 296 299 301 303 304 306 307 309 310 310 311 312 314 315 317 318 318
253 253 254 256 257 257 258 260 261 263 265 267 268 269 272 275 279 281 282 282 285 287 289 291 292 291 292 295 298 301 302 303 305 306 307 308 310 310 312 314 315 316 317 318
253 255 255 255 257 258 259 261 264 265 267 267 269 272 273 277 280 281 282 283 285 288 289 290 291 291 291 294 297 299 300 301 303 304 306 309 310 311 311 313 314 316 318 319